New York, NY

9:56 PM EST on December 15, 2019 (GMT -0500)
La Guardia

Weather History for KLGA - October, 2019

Change the Weather History Date:

Saturday, October 5, 2019

  Actual Average Record
Temperature  
Mean Temperature 53 °F 62 °F  
Max Temperature 60 °F 69 °F 93 °F (1941)
Min Temperature 46 °F 55 °F 38 °F (1965)
Degree Days  
Heating Degree Days 12 5  
Month to date heating degree days 23 21  
Since 1 July heating degree days 26 56  
Cooling Degree Days 0 2  
Month to date cooling degree days 22 10  
Year to date cooling degree days 1477 1200  
Growing Degree Days 3 (Base 50)    
Moisture  
Dew Point 36 °F    
Average Humidity 52    
Maximum Humidity 66    
Minimum Humidity 38    
Precipitation  
Precipitation 0.00 in 0.13 in 1.58 in (1995)
Month to date precipitation 0.44 0.62  
Year to date precipitation 36.92 34.60  
Snow  
Snow 0.00 in 0.00 in - ()
Month to date snowfall 0.0 0.0  
Since 1 July snowfall 0.0 0.0  
Snow Depth 0.00 in    
Sea Level Pressure  
Sea Level Pressure 30.41 in    
Wind  
Wind Speed 9 mph (NE)    
Max Wind Speed 20 mph    
Max Gust Speed 23 mph    
Visibility 10 miles    
Events      
T = Trace of Precipitation, MM = Missing Value Source: NWS Daily Summary

Daily Weather History Graph

Daily Weather History Graph

Search for Another Location

Airport or City:

Astronomy

Oct. 05, 2019 Rise Set
Actual Time 6:55 AM EDT 6:31 PM EDT
Civil Twilight 6:28 AM EDT 6:58 PM EDT
Nautical Twilight 5:56 AM EDT 7:30 PM EDT
Astronomical Twilight 5:24 AM EDT 8:02 PM EDT
Moon 2:21 PM EDT (10/5) 11:50 PM EDT (10/5)
Length of Visible Light 12h 30m
Length of Day
11h 35m
Waxing Crescent, 50% of the Moon is Illuminated
Oct 5
Waxing Crescent
Oct 5
First Quarter
Oct 13
Full
Oct 21
Last Quarter
Oct 27
New

Hourly Weather History & Observations

Time (EDT) Temp. Windchill Dew Point Humidity Pressure Visibility Wind Dir Wind Speed Gust Speed Precip Events Conditions
12:51 AM 51.1 °F - 37.9 °F 61% 30.35 in 10.0 mi North 16.1 mph - N/A   Partly Cloudy
1:51 AM 50.0 °F - 37.0 °F 61% 30.38 in 10.0 mi North 11.5 mph 18.4 mph N/A   Partly Cloudy
2:51 AM 48.9 °F - 37.0 °F 64% 30.38 in 10.0 mi North 12.7 mph - N/A   Clear
3:51 AM 48.0 °F - 36.0 °F 63% 30.40 in 10.0 mi North 10.4 mph - N/A   Clear
4:51 AM 46.9 °F - 36.0 °F 66% 30.41 in 10.0 mi NNE 10.4 mph - N/A   Clear
5:51 AM 46.9 °F - 36.0 °F 66% 30.41 in 10.0 mi North 12.7 mph - N/A   Clear
6:51 AM 46.0 °F 39.9 °F 35.1 °F 66% 30.43 in 10.0 mi NNE 13.8 mph 20.7 mph N/A   Partly Cloudy
7:51 AM 48.0 °F - 34.0 °F 58% 30.45 in 10.0 mi NNE 13.8 mph - N/A   Partly Cloudy
8:51 AM 50.0 °F - 36.0 °F 59% 30.45 in 10.0 mi NE 11.5 mph - N/A   Partly Cloudy
9:51 AM 52.0 °F - 35.1 °F 53% 30.47 in 10.0 mi ENE 13.8 mph - N/A   Partly Cloudy
10:51 AM 55.0 °F - 35.1 °F 47% 30.48 in 10.0 mi NE 9.2 mph - N/A   Partly Cloudy
11:51 AM 55.0 °F - 35.1 °F 47% 30.47 in 10.0 mi ENE 9.2 mph - N/A   Partly Cloudy
12:51 PM 57.0 °F - 34.0 °F 42% 30.45 in 10.0 mi NE 9.2 mph - N/A   Partly Cloudy
1:51 PM 57.0 °F - 33.1 °F 40% 30.43 in 10.0 mi NE 8.1 mph - N/A   Partly Cloudy
2:51 PM 60.1 °F - 35.1 °F 39% 30.41 in 10.0 mi NE 9.2 mph - N/A   Partly Cloudy
3:51 PM 59.0 °F - 35.1 °F 41% 30.39 in 10.0 mi Variable 3.5 mph - N/A   Partly Cloudy
4:51 PM 57.9 °F - 35.1 °F 42% 30.39 in 10.0 mi South 5.8 mph - N/A   Partly Cloudy
5:51 PM 57.0 °F - 35.1 °F 44% 30.38 in 10.0 mi South 6.9 mph - N/A   Partly Cloudy
6:51 PM 55.9 °F - 30.9 °F 39% 30.39 in 10.0 mi South 9.2 mph - N/A   Scattered Clouds
7:51 PM 55.9 °F - 32.0 °F 40% 30.39 in 10.0 mi SSE 5.8 mph - N/A   Scattered Clouds
8:51 PM 57.0 °F - 39.0 °F 51% 30.39 in 10.0 mi South 6.9 mph - N/A   Mostly Cloudy
9:51 PM 57.0 °F - 39.9 °F 53% 30.39 in 10.0 mi South 6.9 mph - N/A   Mostly Cloudy
11:51 PM 57.0 °F - 42.1 °F 57% 30.38 in 10.0 mi ESE 5.8 mph - N/A   Mostly Cloudy